星链-1721 (STARLINK-1721 )

导读 | 星芒AI

STARLINK-1721 是 SpaceX Starlink 卫星互联网项目中的第 1721 颗卫星,属于低轨通信卫星群的一部分。该卫星由 SpaceX 制造并发射,旨在为全球用户提供高速互联网服务,特别是在网络基础设施薄弱的地区。STARLINK-1721 采用先进推进系统和激光通信技术,以提高数据传输效率并减少地面基站依赖。其部署有助于增强 Starlink 网络的覆盖范围与稳定性,支持远程办公、教育及应急通信等应用。

基本信息
目录编号:
46332
目录名称:
STARLINK-1721
国际标识:
2020-062H
轨道中心:
EARTH
卫星名称:
星链-1721
卫星全名:
星链-1721 (STARLINK-1721 )
卫星状态:
已陨落 最后检测时间 2024-10-15
发射日期:
2020-09-03 UTC
国别 :
美国 (US)
星等 :
--
轨道信息
数据来源 国际轨道数据
星历时间: 2024-10-16T01:03:35+0800
轨道信息已过期382天
半长轴: 6528.34km
偏心率: 0.0007454
轨道倾角: 53.004°
近地点辐角 301.900°
升交点赤经 38.407°
平近点角 171.017°
近地点: 145.338km
远地点: 155.072km
周期: 87.491分钟
每日圈数: 16.458819
详细信息
固有亮度:
5
最大亮度:
2.5
卫星平台:
Starlink V1.0
覆盖范围:
全球
运营商:
太空探索技术公司
运营商所在国:
美国
制造商(研发单位):
太空探索技术公司
制造商所在国:
美国
使用方式:
暂无
卫星简介
星链(Starlink)计划是由太空探索技术公司(SpaceX)提出的一个巨型低轨卫星互联网星座项目,计划在2019年至2024年间在太空搭建由约1.2万颗卫星组成的“星链”网络,其中1584颗将部署在地球上空550千米处的近地轨道,并从2020年开始工作。该卫星仍在工作。